WetterOnline ( https://www.wetteronline.de )

Wetter aktuell Ödsmål

Aktuelles Wetter: Satenas (54m)

6-stündlich | Neueste Meldungen
Ortszeit Temperatur Wetter
Sa, 24.10. 14:00 9.9° C bewölkt
Sa, 24.10. 8:00 9.3° C wolkig
Sa, 24.10. 2:00 7.8° C leichte Schauer
Fr, 23.10. 20:00 5.8° C bedeckt
Fr, 23.10. 14:00 6.4° C Sprühregen
Fr, 23.10. 8:00 9.5° C bedeckt
Fr, 23.10. 2:00 10.2° C leicht bewölkt
Do, 22.10. 20:00 10.9° C bewölkt
Ortszeit Temperatur Wetter
Sa, 24.10. 19:20 8° C -
Sa, 24.10. 19:00 7.6° C fast wolkenlos
Sa, 24.10. 18:50 8° C leicht bewölkt
Sa, 24.10. 18:20 8° C leicht bewölkt
Sa, 24.10. 18:00 7.4° C leicht bewölkt
Sa, 24.10. 17:50 7° C leicht bewölkt
Sa, 24.10. 17:20 9° C leicht bewölkt
Sa, 24.10. 17:00 9.0° C leicht bewölkt
Sa, 24.10. 16:20 10° C leicht bewölkt
Sa, 24.10. 16:00 10.3° C leicht bewölkt
Ortszeit Relative Feuchte Sichtweite
Sa, 24.10. 14:00 92% 50 km
Sa, 24.10. 8:00 98% 45 km
Sa, 24.10. 2:00 100% 13 km
Fr, 23.10. 20:00 100% 50 km
Fr, 23.10. 14:00 100% 40 km
Fr, 23.10. 8:00 100% 25 km
Fr, 23.10. 2:00 98% 50 km
Do, 22.10. 20:00 98% 40 km
Ortszeit Relative Feuchte Sichtweite
Sa, 24.10. 19:20 100% >10 km
Sa, 24.10. 19:00 100% 45 km
Sa, 24.10. 18:50 93% >10 km
Sa, 24.10. 18:20 100% >10 km
Sa, 24.10. 18:00 99% 45 km
Sa, 24.10. 17:50 100% >10 km
Sa, 24.10. 17:20 93% >10 km
Sa, 24.10. 17:00 97% 50 km
Sa, 24.10. 16:20 93% >10 km
Sa, 24.10. 16:00 90% 50 km
Ortszeit Niederschlagsmenge Niederschlagsart
Sa, 24.10. 14:00 0.0 l/m2 -
Sa, 24.10. 8:00 0.9 l/m2 in 12 Std. Regenschauer
Sa, 24.10. 2:00 0.1 l/m2 in 6 Std. Regenschauer
Fr, 23.10. 20:00 0.2 l/m2 in 12 Std. -
Fr, 23.10. 14:00 0.2 l/m2 in 6 Std. Regen
Fr, 23.10. 8:00 2 l/m2 in 12 Std. -
Fr, 23.10. 2:00 2 l/m2 in 6 Std. Schauer
Do, 22.10. 20:00 3 l/m2 in 12 Std. Schauer
Ortszeit Niederschlagsmenge Niederschlagsart
Sa, 24.10. 19:20 keine Meldung -
Sa, 24.10. 19:00 0.0 l/m2 in 1 Std. -
Sa, 24.10. 18:50 keine Meldung -
Sa, 24.10. 18:20 keine Meldung -
Sa, 24.10. 18:00 0.0 l/m2 in 1 Std. -
Sa, 24.10. 17:50 keine Meldung -
Sa, 24.10. 17:20 keine Meldung -
Sa, 24.10. 17:00 0.0 l/m2 in 1 Std. -
Sa, 24.10. 16:20 keine Meldung -
Sa, 24.10. 16:00 0.0 l/m2 in 1 Std. -
Ortszeit Stärke Spitze Richtung
km/h Bft. km/h Grad Sektor
Sa, 24.10. 14:00 7 2 14 290° W
Sa, 24.10. 8:00 25 4 40 240° SW
Sa, 24.10. 2:00 14 3 18 150° SO
Fr, 23.10. 20:00 11 2 14 120° SO
Fr, 23.10. 14:00 11 2 18 50° NO
Fr, 23.10. 8:00 14 3 22 250° W
Fr, 23.10. 2:00 29 5 40 230° SW
Do, 22.10. 20:00 29 5 - 240° SW
Ortszeit Stärke Spitze Richtung
km/h Bft. km/h Grad Sektor
Sa, 24.10. 19:20 13 3 - 180° S
Sa, 24.10. 19:00 11 2 14 190° S
Sa, 24.10. 18:50 9 2 - 200° S
Sa, 24.10. 18:20 13 3 - 200° S
Sa, 24.10. 18:00 14 3 14 190° S
Sa, 24.10. 17:50 13 3 - 200° S
Sa, 24.10. 17:20 7 2 - 170° S
Sa, 24.10. 17:00 4 1 11 160° S
Sa, 24.10. 16:20 7 2 - 240° SW
Sa, 24.10. 16:00 7 2 11 240° SW
Ortszeit Untergrenze Bedeckung Gattung
total tief tief mittel hoch
Sa, 24.10. 14:00 750 m 7/8 7/8 - - -
Sa, 24.10. 8:00 510 m 6/8 3/8 - - -
Sa, 24.10. 2:00 840 m 8/8 8/8 - - -
Fr, 23.10. 20:00 1050 m 8/8 8/8 - - -
Fr, 23.10. 14:00 210 m 8/8 7/8 St - -
Fr, 23.10. 8:00 240 m 8/8 7/8 Sc - -
Fr, 23.10. 2:00 540 m 4/8 3/8 - - -
Do, 22.10. 20:00 240 m 7/8 7/8 Cb - -
Ortszeit Bedeckungsgrad in Achtel und Wolkenuntergrenze
Sa, 24.10. 19:20 -
Sa, 24.10. 19:00 1(3900m)
Sa, 24.10. 18:50 1-2(3900m)
Sa, 24.10. 18:20 1-2(3300m)
Sa, 24.10. 18:00 1(750m) 3(3300m)
Sa, 24.10. 17:50 1-2(720m) 3-4(3300m)
Sa, 24.10. 17:20 1-2(3900m)
Sa, 24.10. 17:00 4(4200m)
Sa, 24.10. 16:20 1-2(1200m)
Sa, 24.10. 16:00 1(1290m) 5(4200m)
Ortszeit Luftdruck NN (hPa) Tendenz (hPa in 3 Std.)
Sa, 24.10. 14:00 1004 + 1,6
Sa, 24.10. 8:00 1000 + 0,6
Sa, 24.10. 2:00 1003 - 2,0
Fr, 23.10. 20:00 1006 + 0,1
Fr, 23.10. 14:00 1005 + 2,0
Fr, 23.10. 8:00 1000 + 2,5
Fr, 23.10. 2:00 996 - 0,7
Do, 22.10. 20:00 998 + 0,4
Ortszeit Luftdruck NN (hPa) Tendenz (hPa in 3 Std.)
Sa, 24.10. 19:20 1004 keine Meldung
Sa, 24.10. 19:00 1005 + 0,9
Sa, 24.10. 18:50 1004 keine Meldung
Sa, 24.10. 18:20 1004 keine Meldung
Sa, 24.10. 18:00 1005 + 0,4
Sa, 24.10. 17:50 1004 keine Meldung
Sa, 24.10. 17:20 1004 keine Meldung
Sa, 24.10. 17:00 1004 + 0,2
Sa, 24.10. 16:20 1004 keine Meldung
Sa, 24.10. 16:00 1004 + 0,2
Ortszeit Schneehöhe (cm)
Sa, 24.10. 14:00 -
Sa, 24.10. 8:00 -
Sa, 24.10. 2:00 -
Fr, 23.10. 20:00 -
Fr, 23.10. 14:00 -
Fr, 23.10. 8:00 -
Fr, 23.10. 2:00 -
Do, 22.10. 20:00 -
Ortszeit Schneehöhe (cm)
Sa, 24.10. 19:20 -
Sa, 24.10. 19:00 -
Sa, 24.10. 18:50 -
Sa, 24.10. 18:20 -
Sa, 24.10. 18:00 -
Sa, 24.10. 17:50 -
Sa, 24.10. 17:20 -
Sa, 24.10. 17:00 -
Sa, 24.10. 16:20 -
Sa, 24.10. 16:00 -
Link zu dieser Seite / Seite empfehlen

Das Wetter in ...